User: anonymous   Login
Location: *
(33.8649°S, 62.1526°E)
Time: 16:07:46
(UTC+00:00)
Language:

YAOGAN 1 - Orbit

View from above orbital plane
View from above orbital plane
View from above satellite
View from above satellite

Ground track
Ground track

The orbit data is extracted from the following two-line orbital elements,

1 29092U 06015A   21107.79670449  .00000092  00000-0  17796-4 0  9996
2 29092  97.9143 135.7643 0001429  91.2891 268.8486 14.83147487809840
Epoch (UTC): 17 April 2021 19:07:15
Eccentricity: 0.0001429
inclination: 97.9143°
perigee height: 618 km
apogee height: 620 km
right ascension of ascending node: 135.7643°
argument of perigee: 91.2891°
revolutions per day: 14.83147487
mean anomaly at epoch: 268.8486°
orbit number at epoch: 80984

The dashed part of the orbit path shows where the satellite is in the earth's shadow,  

DLR